Tracking 35237 objects as of 6-Sep-2026
HD Live streaming from Space Station
objects crossing your sky now

CZ-4B R/B


CZ-4B R/B is no longer on orbit


NORAD ID: 46481
Int'l Code: 2020-067D
Launch date: September 27, 2020
Source: People's Republic of China (PRC)
Launch site: Taiyaun Space Center, China (TSC)
Decay date: 2025-03-04

Note: This is a ROCKET BODY
Your satellite tracking list
Your tracking list is empty




NASA's NSSDC Master Catalog

Two Line Element Set (TLE):
1 46481U 20067D   25063.05996941  .16327159  30540-5  27236-3 0  9991
2 46481  97.9670 267.0228 0007503 239.9305 279.4691 16.47815037246547
Source of the keplerian elements: AFSPC